Weather History for Bradshaw AFB, HI

Change the Weather History Date:

Saturday, December 14, 2013

  Actual Average Record
Temperature  
Mean Temperature 52 °F -  
Max Temperature 67 °F 64 °F 75 °F (1998)
Min Temperature 37 °F 42 °F 37 °F (2004)
Degree Days  
Heating Degree Days 13    
Growing Degree Days 2 (Base 50)    
Moisture  
Dew Point 35 °F    
Average Humidity 54    
Maximum Humidity 82    
Minimum Humidity 26    
Precipitation  
Precipitation 0.00 in - - ()
Sea Level Pressure  
Sea Level Pressure 30.27 in    
Wind  
Wind Speed 5 mph (South)    
Max Wind Speed 12 mph    
Max Gust Speed 16 mph    
Visibility 11 miles    
Events      
Averages and records for this station are not official NWS values.
T = Trace of Precipitation, MM = Missing Value Source: NWS Daily Summary

Daily Weather History Graph

Daily Weather History Graph

Search for Another Location

Airport:

Trip Planner

Search our weather history database for the weather conditions in past years. The results will help you decide how hot, cold, wet, or windy it might be!

Date:

Astronomy

Dec. 14, 2013 Rise Set
Actual Time 6:48 AM HST 5:45 PM HST
Civil Twilight 6:24 AM HST 6:09 PM HST
Nautical Twilight 5:57 AM HST 6:37 PM HST
Astronomical Twilight 5:30 AM HST 7:04 PM HST
Moon 4:04 PM HST (12/14) 4:32 AM HST (12/14)
Length of Visible Light 11h 44m
Length of Day
10h 56m
Waxing Gibbous, 94% of the Moon is Illuminated
Dec 14
Waxing Gibbous
Dec 16
Full
Dec 25
Last Quarter
Jan 1
New
Jan 7
First Quarter

Hourly Weather History & Observations

Time (HST) Temp. Windchill Dew Point Humidity Pressure Visibility Wind Dir Wind Speed Gust Speed Precip Events Conditions
12:56 AM 48.4 °F - 21.2 °F 34% 30.31 in 12.0 mi West 3.5 mph - N/A   Partly Cloudy
1:56 AM 43.0 °F 39.5 °F 20.3 °F 40% 30.31 in 12.0 mi ESE 5.8 mph - N/A   Clear
2:56 AM 43.2 °F 39.7 °F 22.1 °F 43% 30.28 in 12.0 mi SE 5.8 mph - N/A   Partly Cloudy
3:56 AM 39.7 °F 36.5 °F 22.5 °F 50% 30.27 in 12.0 mi SE 4.6 mph - N/A   Clear
4:56 AM 41.4 °F - 17.4 °F 38% 30.27 in 12.0 mi East 2.3 mph - N/A   Clear
5:56 AM 37.6 °F - 21.6 °F 52% 30.28 in 12.0 mi North 2.3 mph - N/A   Clear
6:56 AM 40.1 °F - 30.9 °F 70% 30.30 in 12.0 mi East 2.3 mph - N/A   Clear
7:56 AM 48.4 °F - 37.0 °F 65% 30.31 in 12.0 mi ESE 4.6 mph - N/A   Clear
8:56 AM 57.4 °F - 37.6 °F 48% 30.32 in 12.0 mi South 2.3 mph - N/A   Clear
9:56 AM 63.9 °F - 28.6 °F 26% 30.32 in 12.0 mi North 1.2 mph - N/A   Clear
10:56 AM 66.0 °F - 40.6 °F 39% 30.30 in 12.0 mi West 11.5 mph - N/A   Clear
11:56 AM 67.1 °F - 50.0 °F 54% 30.27 in 12.0 mi WSW 10.4 mph 16.1 mph N/A   Clear
12:56 PM 64.2 °F - 50.5 °F 61% 30.24 in 11.0 mi West 9.2 mph 16.1 mph N/A   Clear
1:56 PM 63.9 °F - 50.7 °F 62% 30.23 in 11.0 mi WSW 8.1 mph 16.1 mph N/A   Clear
2:56 PM 63.5 °F - 51.3 °F 64% 30.22 in 8.0 mi WSW 5.8 mph 13.8 mph N/A   Clear
3:56 PM 63.5 °F - 52.2 °F 67% 30.23 in 8.0 mi WSW 9.2 mph - N/A   Clear
4:56 PM 59.7 °F - 51.3 °F 74% 30.24 in 7.0 mi WSW 4.6 mph - N/A   Clear
5:56 PM 56.5 °F - 50.9 °F 82% 30.25 in 6.0 mi WNW 2.3 mph - N/A   Clear
6:56 PM 54.1 °F - 46.0 °F 74% 30.26 in 7.0 mi North 2.3 mph - N/A   Clear
7:56 PM 51.4 °F - 39.0 °F 63% 30.28 in 12.0 mi ESE 2.3 mph - N/A   Clear
8:56 PM 48.7 °F - 34.2 °F 57% 30.28 in 12.0 mi ESE 2.3 mph - N/A   Clear
9:56 PM 48.6 °F - 27.3 °F 44% 30.29 in 12.0 mi SSE 3.5 mph - N/A   Clear
10:56 PM 47.5 °F - 26.2 °F 44% 30.27 in 12.0 mi East 3.5 mph - N/A   Clear
11:56 PM 46.0 °F - 20.1 °F 36% 30.26 in 12.0 mi Calm Calm - N/A   Clear